NO-0064 weather

Svenningdal Airstrip
Nordland, Norway

Public forecast

Using degrees Celsius for public forecast. Weather courtesy of forecast.io.

Closest aviation weather report (METAR) to Svenningdal Airstrip

Closest report is Mosjøen Airport (Kjærstad), 21.0 nm (38.9 km) NNW. Retrieved 2020/08/05 04:50 UTC (20 minutes ago):

ENMS 050450Z VRB01KT 9999 FEW000 SCT024 BKN050 11/10 Q1007 RMK WIND 412FT 00000KT

Closest aviation forecast (TAF) to Svenningdal Airstrip

Forecast is more than 12 hours old.

Closest forecast is Hemavan Airport, 46.9 nm (86.8 km) ENE. Retrieved 2009/10/12 22:40 UTC (11 years ago):

TAF TAF LTCC 122240Z 13 SASN33 ESWI 130020 RRA METAR ESUT 130020Z AUTO 00000KT 9999NDV NCD M08/M10 Q1022